Hourly Weather Sveti Vlas

Today, 5 July, Sunday

Time Temperature Precipitation Wind Pressure Humidity
00:00 +24°C° 0 mm 2 mps 752 mmHg 81%
01:00 +22°C° 0 mm 3 mps 752 mmHg 84%
02:00 +22°C° 0 mm 4 mps 752 mmHg 87%
03:00 +21°C° 0 mm 4 mps 752 mmHg 89%
04:00 +21°C° 0 mm 4 mps 752 mmHg 91%
05:00 +21°C° 0 mm 4 mps 752 mmHg 94%
06:00 +22°C° 0 mm 4 mps 752 mmHg 88%
07:00 +23°C° 0 mm 4 mps 752 mmHg 83%
08:00 +26°C° 0 mm 5 mps 752 mmHg 78%
09:00 +27°C° 0.1 mm 4 mps 752 mmHg 71%
10:00 +29°C° 0.1 mm 4 mps 752 mmHg 64%
11:00 +32°C° 0.1 mm 4 mps 752 mmHg 57%
12:00 +32°C° 0.5 mm 4 mps 752 mmHg 57%
13:00 +32°C° 0.5 mm 4 mps 752 mmHg 57%
14:00 +33°C° 0.5 mm 4 mps 751 mmHg 56%
15:00 +32°C° 0.5 mm 4 mps 751 mmHg 60%
16:00 +30°C° 0.5 mm 4 mps 751 mmHg 64%
17:00 +30°C° 0.5 mm 4 mps 751 mmHg 68%
18:00 +28°C° 0.2 mm 3 mps 751 mmHg 74%
19:00 +27°C° 0.2 mm 3 mps 751 mmHg 79%
20:00 +25°C° 0.2 mm 2 mps 750 mmHg 85%
21:00 +25°C° 0 mm 2 mps 751 mmHg 85%
22:00 +25°C° 0 mm 2 mps 751 mmHg 86%
23:00 +24°C° 0 mm 2 mps 751 mmHg 86%

Tomorrow, 6 July, Monday

Time Temperature Precipitation Wind Pressure Humidity
00:00 +24°C° 0 mm 3 mps 751 mmHg 86%
01:00 +24°C° 0 mm 3 mps 750 mmHg 87%
02:00 +22°C° 0 mm 4 mps 750 mmHg 87%
03:00 +22°C° 0 mm 4 mps 750 mmHg 89%
04:00 +22°C° 0 mm 4 mps 750 mmHg 91%
05:00 +21°C° 0 mm 5 mps 749 mmHg 93%
06:00 +23°C° 0 mm 5 mps 749 mmHg 88%
07:00 +25°C° 0 mm 5 mps 750 mmHg 83%
08:00 +27°C° 0 mm 6 mps 750 mmHg 78%
09:00 +28°C° 0 mm 6 mps 749 mmHg 71%
10:00 +30°C° 0 mm 6 mps 749 mmHg 64%
11:00 +33°C° 0 mm 6 mps 749 mmHg 58%
12:00 +33°C° 0.1 mm 7 mps 749 mmHg 59%
13:00 +33°C° 0.1 mm 7 mps 748 mmHg 60%
14:00 +33°C° 0.1 mm 7 mps 748 mmHg 61%
15:00 +32°C° 0.2 mm 7 mps 748 mmHg 64%
16:00 +30°C° 0.2 mm 6 mps 747 mmHg 67%
17:00 +30°C° 0.2 mm 6 mps 747 mmHg 69%
18:00 +28°C° 0 mm 5 mps 747 mmHg 77%
19:00 +27°C° 0 mm 4 mps 747 mmHg 84%
20:00 +25°C° 0 mm 3 mps 747 mmHg 91%
21:00 +25°C° 0 mm 3 mps 747 mmHg 92%
22:00 +24°C° 0 mm 3 mps 747 mmHg 93%
23:00 +24°C° 0 mm 3 mps 747 mmHg 94%

Day after tomorrow, 7 July, Tuesday

Time Temperature Precipitation Wind Pressure Humidity
00:00 +24°C° 0 mm 3 mps 747 mmHg 94%
01:00 +22°C° 0 mm 3 mps 746 mmHg 94%
02:00 +22°C° 0 mm 3 mps 746 mmHg 94%
03:00 +22°C° 0 mm 3 mps 746 mmHg 94%
04:00 +21°C° 0 mm 3 mps 746 mmHg 94%
05:00 +21°C° 0 mm 3 mps 746 mmHg 93%
06:00 +24°C° 0 mm 3 mps 746 mmHg 87%
07:00 +26°C° 0 mm 3 mps 746 mmHg 81%
08:00 +27°C° 0 mm 3 mps 746 mmHg 74%
09:00 +29°C° 0 mm 3 mps 746 mmHg 67%
10:00 +31°C° 0 mm 3 mps 746 mmHg 60%
11:00 +33°C° 0 mm 4 mps 746 mmHg 52%
12:00 +34°C° 0 mm 4 mps 746 mmHg 50%
13:00 +34°C° 0 mm 3 mps 746 mmHg 47%
14:00 +35°C° 0 mm 3 mps 746 mmHg 45%
15:00 +34°C° 0 mm 3 mps 746 mmHg 48%
16:00 +34°C° 0 mm 2 mps 746 mmHg 51%
17:00 +32°C° 0 mm 2 mps 746 mmHg 55%
18:00 +30°C° 0.2 mm 2 mps 746 mmHg 62%
19:00 +28°C° 0.2 mm 1 mps 747 mmHg 70%
20:00 +26°C° 0.2 mm 1 mps 747 mmHg 77%
21:00 +25°C° 0.5 mm 3 mps 747 mmHg 80%
22:00 +22°C° 0.5 mm 6 mps 748 mmHg 82%
23:00 +21°C° 0.5 mm 9 mps 749 mmHg 85%

8 July, Wednesday

Time Temperature Precipitation Wind Pressure Humidity
00:00 +21°C° 0.4 mm 9 mps 749 mmHg 86%
01:00 +19°C° 0.4 mm 9 mps 749 mmHg 88%
02:00 +20°C° 0.4 mm 8 mps 749 mmHg 89%
03:00 +18°C° 0.1 mm 8 mps 749 mmHg 88%
04:00 +18°C° 0.1 mm 8 mps 749 mmHg 88%
05:00 +17°C° 0.1 mm 7 mps 750 mmHg 87%
06:00 +18°C° 0 mm 7 mps 750 mmHg 83%
07:00 +20°C° 0 mm 7 mps 750 mmHg 80%
08:00 +21°C° 0 mm 7 mps 751 mmHg 76%
09:00 +22°C° 0.1 mm 7 mps 751 mmHg 75%
10:00 +23°C° 0.1 mm 8 mps 751 mmHg 73%
11:00 +24°C° 0.1 mm 8 mps 752 mmHg 71%
12:00 +26°C° 0 mm 7 mps 752 mmHg 68%
13:00 +27°C° 0 mm 7 mps 751 mmHg 65%
14:00 +28°C° 0 mm 7 mps 751 mmHg 62%
15:00 +28°C° 0 mm 7 mps 751 mmHg 63%
16:00 +28°C° 0 mm 7 mps 751 mmHg 64%
17:00 +27°C° 0 mm 7 mps 751 mmHg 64%
18:00 +26°C° 0 mm 7 mps 751 mmHg 69%
19:00 +23°C° 0 mm 6 mps 752 mmHg 74%
20:00 +21°C° 0 mm 6 mps 752 mmHg 78%
21:00 +21°C° 0 mm 6 mps 752 mmHg 78%
22:00 +21°C° 0 mm 6 mps 753 mmHg 78%
23:00 +21°C° 0 mm 6 mps 753 mmHg 78%

9 July, Thursday

Time Temperature Precipitation Wind Pressure Humidity
00:00 +20°C° 0 mm 6 mps 753 mmHg 77%
01:00 +20°C° 0 mm 7 mps 753 mmHg 77%
02:00 +20°C° 0 mm 7 mps 753 mmHg 76%
03:00 +20°C° 0 mm 7 mps 753 mmHg 77%
04:00 +19°C° 0 mm 6 mps 753 mmHg 78%
05:00 +19°C° 0 mm 6 mps 753 mmHg 79%
06:00 +20°C° 0 mm 6 mps 753 mmHg 76%
07:00 +21°C° 0 mm 7 mps 754 mmHg 72%
08:00 +23°C° 0 mm 7 mps 754 mmHg 69%
09:00 +24°C° 0 mm 6 mps 754 mmHg 66%
10:00 +26°C° 0 mm 6 mps 754 mmHg 62%
11:00 +28°C° 0 mm 6 mps 754 mmHg 59%
12:00 +28°C° 0 mm 5 mps 754 mmHg 58%
13:00 +28°C° 0 mm 5 mps 754 mmHg 56%
14:00 +29°C° 0 mm 4 mps 754 mmHg 55%
15:00 +29°C° 0 mm 4 mps 754 mmHg 56%
16:00 +29°C° 0 mm 4 mps 754 mmHg 57%
17:00 +29°C° 0 mm 4 mps 754 mmHg 58%
18:00 +27°C° 0 mm 3 mps 754 mmHg 65%
19:00 +25°C° 0 mm 2 mps 754 mmHg 71%
20:00 +24°C° 0 mm 2 mps 754 mmHg 78%
21:00 +23°C° 0 mm 2 mps 754 mmHg 79%
22:00 +21°C° 0 mm 3 mps 754 mmHg 79%
23:00 +21°C° 0 mm 4 mps 755 mmHg 79%

10 July, Friday

Time Temperature Precipitation Wind Pressure Humidity
00:00 +20°C° 0 mm 4 mps 755 mmHg 79%
01:00 +20°C° 0 mm 4 mps 755 mmHg 78%
02:00 +19°C° 0 mm 4 mps 755 mmHg 78%
03:00 +19°C° 0 mm 4 mps 755 mmHg 78%
04:00 +19°C° 0 mm 4 mps 755 mmHg 79%
05:00 +19°C° 0 mm 4 mps 755 mmHg 80%
06:00 +20°C° 0 mm 5 mps 755 mmHg 73%
07:00 +22°C° 0 mm 5 mps 755 mmHg 67%
08:00 +25°C° 0 mm 5 mps 755 mmHg 60%
09:00 +26°C° 0 mm 5 mps 755 mmHg 56%
10:00 +27°C° 0 mm 6 mps 755 mmHg 51%
11:00 +29°C° 0 mm 6 mps 755 mmHg 46%
12:00 +29°C° 0 mm 6 mps 755 mmHg 47%
13:00 +29°C° 0 mm 6 mps 755 mmHg 47%
14:00 +29°C° 0 mm 6 mps 755 mmHg 47%
15:00 +28°C° 0 mm 6 mps 755 mmHg 50%
16:00 +28°C° 0 mm 5 mps 755 mmHg 53%
17:00 +27°C° 0 mm 5 mps 755 mmHg 57%
18:00 +26°C° 0 mm 4 mps 755 mmHg 63%
19:00 +24°C° 0 mm 3 mps 755 mmHg 69%
20:00 +22°C° 0 mm 3 mps 755 mmHg 75%
21:00 +21°C° 0 mm 3 mps 755 mmHg 78%
22:00 +20°C° 0 mm 3 mps 755 mmHg 80%
23:00 +20°C° 0 mm 3 mps 755 mmHg 82%
Show more